AMC-14

Satellite information

Favourite Embed

Satellite Type and Status

PAYLOADIN ORBIT

Key statistics

Satellite AMC-14 at a glance.

Uptime

6434

Days in orbit

Revolutions

≈ 1.0

Per day

Orbit

OTHER

Other

Inclination

23.7

Latest

Satellite identification and parameters

Extended collection of information and parameters for AMC-14.

Object identification

Identified? True

Debris? False

Object name: AMC-14

International designator: 2008-011A

Object number (NORAD): 32708

Object ID (CCSDS): 32708

Country: UNITED STATES OF AMERICA (US)

Current information (Y/N): Y

RCS size: LARGE

Orbital parameters

Period: 1436.112 minutes

Inclination: 23.7206 deg

SMA: 42165.033 km

Apoapsis: 35943.197 km

Periapsis: 35630.599 km

RAAN: 23.3691 deg

Eccentricy: 0.00370684

Argument of periapsis: 347.0775 deg

Mean anomaly: 20.464 deg

Mean motion: 1.0027071 rev/day

Mean motion (dot): 0.00000114 rev/day2

B* drag term: 0.0 1/REarth

Two-line elements (TLE)

Creation date: Oct. 24, 2025, 6:33 p.m.

Reference frame: TEME

Reference center: EARTH

Epoch: Oct. 23, 2025, 9:52 p.m. UTC

TLE line 0: 0 AMC-14

TLE line 1: 1 32708U 08011A 25296.91129233 .00000114 00000-0 00000-0 0 9990

TLE line 2: 2 32708 23.7206 23.3691 0037068 347.0775 20.4640 1.00270710 65806

Live tracking on map

Real-time ground track for satellite AMC-14.

In-orbit conjunctions

There are no conjunctions computed for AMC-14, at the moment. Check back to stay up to date, as we update our databases every day.

Go to all conjunctions

Associated space launch

American communications satellite scheduled to operate in GEO, but was left stranded in a too low transfer orbit due to a launch vehicle failure. It was sold to the US Department of Defense and operated from geosynchronous orbit.

AMC-14 was lifted into orbit during the mission ‘Proton-M Briz-M | AMC 14’, on board a Proton-M Briz-M space rocket.

The launch took place on March 14, 2008, 11:18 p.m. from 200/39 (200L).

For more information about the launch, click the button.

Launch to space Proton-M Briz-M | AMC 14
Proton-M Briz-M | AMC 14

Agency: N/A

Status: Launch Failure

Launch date: March 14, 2008, 11:18 p.m. UTC

Rocket: Proton-M Briz-M

Launch pad: 200/39 (200L)

Location: Baikonur Cosmodrome, Republic of Kazakhstan

...

Latest news about this satellite

There are no fresh news available about this satellite. Check back as we update our databases every day.


Newsletter sign-up

Weekly statistics, charts and insights to help you stay on top of the space industry.